N4692F KSAN-KSFO

Flight info

Callsign N4692F
Flight time 1h 6m
Altitude 36000
Route KSAN BERKS SHAKE RW19L KSFO
Aircraft C700/M-V/N

Departure

Time 2026-04-21 17:24
Airport San Diego International Airport (KSAN)

Arrival

Time 2026-04-21 18:30
Airport San Francisco International Airport (KSFO)
Time Latitude Longitude Altitude Speed Heading
2026-04-21 16:53 32.73238 -117.19301 19 ft 0 kts 195°
2026-04-21 17:15 32.73237 -117.19302 21 ft 0 kts 216°
2026-04-21 17:16 32.73238 -117.19309 20 ft 1 kts 294°
2026-04-21 17:16 32.73258 -117.19297 19 ft 7 kts 30°
2026-04-21 17:16 32.73302 -117.19300 18 ft 7 kts 316°
2026-04-21 17:16 32.73347 -117.19381 22 ft 15 kts 300°
2026-04-21 17:17 32.73376 -117.19470 21 ft 0 kts 286°
2026-04-21 17:17 32.73374 -117.19474 21 ft 1 kts 238°
2026-04-21 17:17 32.73368 -117.19460 21 ft 6 kts 90°
2026-04-21 17:17 32.73346 -117.19350 19 ft 20 kts 106°
2026-04-21 17:18 32.73307 -117.19191 19 ft 20 kts 105°
2026-04-21 17:18 32.73269 -117.19032 23 ft 20 kts 105°
2026-04-21 17:18 32.73228 -117.18866 23 ft 21 kts 105°
2026-04-21 17:18 32.73191 -117.18713 28 ft 19 kts 105°
2026-04-21 17:19 32.73152 -117.18551 30 ft 22 kts 106°
2026-04-21 17:19 32.73107 -117.18366 27 ft 24 kts 106°
2026-04-21 17:19 32.73062 -117.18178 24 ft 17 kts 106°
2026-04-21 17:19 32.73070 -117.18121 23 ft 0 kts 41°
2026-04-21 17:20 32.73065 -117.18113 23 ft 4 kts 146°
2026-04-21 17:21 32.73032 -117.18055 23 ft 12 kts 107°
2026-04-21 17:21 32.73003 -117.17935 23 ft 18 kts 106°
2026-04-21 17:21 32.72963 -117.17782 22 ft 20 kts 108°
2026-04-21 17:21 32.72956 -117.17675 23 ft 11 kts 72°
2026-04-21 17:22 32.72957 -117.17670 23 ft 0 kts 72°
2026-04-21 17:22 32.72958 -117.17665 25 ft 0 kts 74°
2026-04-21 17:23 32.72995 -117.17609 26 ft 12 kts 15°
2026-04-21 17:23 32.73049 -117.17703 23 ft 31 kts 286°
2026-04-21 17:23 32.73193 -117.18298 27 ft 118 kts 286°
2026-04-21 17:23 32.73506 -117.19499 216 ft 181 kts 287°
2026-04-21 17:24 32.73947 -117.20958 1321 ft 191 kts 296°
2026-04-21 17:24 32.74691 -117.22304 2695 ft 199 kts 304°
2026-04-21 17:24 32.75499 -117.23690 4063 ft 209 kts 302°
2026-04-21 17:24 32.76317 -117.25187 5441 ft 224 kts 300°
2026-04-21 17:25 32.77188 -117.26800 6799 ft 240 kts 299°
2026-04-21 17:25 32.78112 -117.28505 7908 ft 265 kts 298°
2026-04-21 17:25 32.79225 -117.30579 8017 ft 332 kts 299°
2026-04-21 17:25 32.80543 -117.32786 7981 ft 288 kts 304°
2026-04-21 17:26 32.81685 -117.34460 7971 ft 242 kts 302°
2026-04-21 17:26 32.82696 -117.36073 7984 ft 248 kts 301°
2026-04-21 17:26 32.83755 -117.37744 7995 ft 258 kts 303°
2026-04-21 17:26 32.84870 -117.39459 7997 ft 266 kts 303°
2026-04-21 17:27 32.86005 -117.41206 7989 ft 267 kts 303°
2026-04-21 17:27 32.87136 -117.42962 7985 ft 267 kts 303°
2026-04-21 17:27 32.88264 -117.44717 7981 ft 268 kts 303°
2026-04-21 17:27 32.89437 -117.46548 7990 ft 279 kts 303°
2026-04-21 17:28 32.90213 -117.47747 7990 ft 272 kts 303°
2026-04-21 17:28 32.91729 -117.50096 7982 ft 266 kts 303°
2026-04-21 17:28 32.92477 -117.51264 7979 ft 267 kts 303°
2026-04-21 17:28 32.93605 -117.53024 7974 ft 269 kts 303°
2026-04-21 17:29 32.94721 -117.54756 8448 ft 250 kts 302°
2026-04-21 17:29 32.95793 -117.56428 9579 ft 263 kts 301°
2026-04-21 17:29 32.96938 -117.58237 10686 ft 283 kts 300°
2026-04-21 17:29 32.98175 -117.60171 11785 ft 304 kts 300°
2026-04-21 17:30 32.99504 -117.62241 12930 ft 325 kts 300°
2026-04-21 17:30 33.00915 -117.64440 14099 ft 342 kts 300°
2026-04-21 17:30 33.02396 -117.66755 14931 ft 364 kts 300°
2026-04-21 17:30 33.03994 -117.69274 14981 ft 391 kts 300°
2026-04-21 17:31 33.05663 -117.71841 14982 ft 393 kts 302°
2026-04-21 17:31 33.07601 -117.74216 14973 ft 405 kts 312°
2026-04-21 17:31 33.09762 -117.76388 14983 ft 405 kts 313°
2026-04-21 17:31 33.11904 -117.78555 14975 ft 403 kts 313°
2026-04-21 17:32 33.14035 -117.80739 14972 ft 404 kts 313°
2026-04-21 17:32 33.16175 -117.82926 14972 ft 406 kts 313°
2026-04-21 17:32 33.18319 -117.85103 14978 ft 406 kts 313°
2026-04-21 17:32 33.20397 -117.87373 14980 ft 401 kts 308°
2026-04-21 17:33 33.22358 -117.89745 14985 ft 402 kts 308°
2026-04-21 17:33 33.24346 -117.92111 14976 ft 405 kts 308°
2026-04-21 17:33 33.26338 -117.94464 14975 ft 401 kts 308°
2026-04-21 17:33 33.28312 -117.96817 14973 ft 401 kts 308°
2026-04-21 17:34 33.30288 -117.99191 14975 ft 404 kts 308°
2026-04-21 17:34 33.32276 -118.01567 14969 ft 402 kts 308°
2026-04-21 17:34 33.34253 -118.03922 14968 ft 400 kts 308°
2026-04-21 17:34 33.36223 -118.06280 14974 ft 402 kts 308°
2026-04-21 17:35 33.38201 -118.08651 14980 ft 400 kts 308°
2026-04-21 17:35 33.40141 -118.10974 14974 ft 399 kts 307°
2026-04-21 17:35 33.42105 -118.13331 14987 ft 400 kts 307°
2026-04-21 17:35 33.43950 -118.15545 14990 ft 401 kts 308°
2026-04-21 17:36 33.45924 -118.17914 14992 ft 401 kts 308°
2026-04-21 17:36 33.47888 -118.20269 14991 ft 399 kts 307°
2026-04-21 17:36 33.49846 -118.22625 14990 ft 398 kts 307°
2026-04-21 17:36 33.51801 -118.24979 14991 ft 400 kts 307°
2026-04-21 17:37 33.53771 -118.27351 14993 ft 401 kts 307°
2026-04-21 17:37 33.55739 -118.29719 15012 ft 400 kts 307°
2026-04-21 17:37 33.57711 -118.32095 15024 ft 401 kts 307°
2026-04-21 17:37 33.59632 -118.34404 16084 ft 390 kts 307°
2026-04-21 17:38 33.61562 -118.36749 17206 ft 399 kts 307°
2026-04-21 17:38 33.63532 -118.39136 18388 ft 406 kts 307°
2026-04-21 17:38 33.65542 -118.41558 19428 ft 411 kts 307°
2026-04-21 17:38 33.67568 -118.44002 20494 ft 415 kts 307°
2026-04-21 17:39 33.69607 -118.46471 21600 ft 416 kts 306°
2026-04-21 17:39 33.71646 -118.48942 22745 ft 416 kts 306°
2026-04-21 17:39 33.73680 -118.51406 23905 ft 415 kts 306°
2026-04-21 17:39 33.75681 -118.53831 24917 ft 413 kts 305°
2026-04-21 17:40 33.77701 -118.56283 25980 ft 410 kts 305°
2026-04-21 17:40 33.79699 -118.58708 27069 ft 405 kts 304°
2026-04-21 17:40 33.81670 -118.61102 28202 ft 399 kts 304°
2026-04-21 17:40 33.83605 -118.63454 29384 ft 392 kts 304°
2026-04-21 17:41 33.85505 -118.65767 30542 ft 385 kts 303°
2026-04-21 17:41 33.87364 -118.68030 31643 ft 376 kts 302°
2026-04-21 17:41 33.89178 -118.70236 32753 ft 364 kts 302°
2026-04-21 17:41 33.90926 -118.72365 33907 ft 351 kts 301°
2026-04-21 17:42 33.92611 -118.74417 34982 ft 337 kts 301°
2026-04-21 17:42 33.94221 -118.76384 35899 ft 327 kts 301°
2026-04-21 17:42 33.95841 -118.78399 35950 ft 342 kts 301°
2026-04-21 17:42 33.97540 -118.80500 35961 ft 358 kts 302°
2026-04-21 17:43 33.99335 -118.82682 35968 ft 373 kts 302°
2026-04-21 17:43 34.01195 -118.84944 35968 ft 387 kts 303°
2026-04-21 17:43 34.03113 -118.87296 35968 ft 400 kts 303°
2026-04-21 17:43 34.05097 -118.89734 35962 ft 414 kts 303°
2026-04-21 17:44 34.07147 -118.92247 35960 ft 427 kts 304°
2026-04-21 17:44 34.09230 -118.94798 35995 ft 439 kts 304°
2026-04-21 17:44 34.11405 -118.97470 35955 ft 452 kts 304°
2026-04-21 17:44 34.13637 -119.00180 35947 ft 460 kts 306°
2026-04-21 17:45 34.16121 -119.02699 35946 ft 472 kts 312°
2026-04-21 17:45 34.18748 -119.05059 35950 ft 466 kts 312°
2026-04-21 17:45 34.21306 -119.07376 35962 ft 454 kts 311°
2026-04-21 17:45 34.23794 -119.09667 35963 ft 448 kts 311°
2026-04-21 17:46 34.28798 -119.14266 35977 ft 456 kts 312°
2026-04-21 17:46 34.33883 -119.18894 35975 ft 456 kts 312°
2026-04-21 17:47 34.38908 -119.23516 35970 ft 452 kts 311°
2026-04-21 17:47 34.43939 -119.28136 35969 ft 454 kts 311°
2026-04-21 17:48 34.48974 -119.32758 35937 ft 456 kts 311°
2026-04-21 17:48 34.54044 -119.37435 35932 ft 458 kts 312°
2026-04-21 17:49 34.59111 -119.42100 35922 ft 457 kts 311°
2026-04-21 17:49 34.64161 -119.46774 35914 ft 456 kts 311°
2026-04-21 17:50 34.69214 -119.51445 35902 ft 457 kts 311°
2026-04-21 17:50 34.74266 -119.56130 35925 ft 453 kts 311°
2026-04-21 17:51 34.79251 -119.60753 35908 ft 451 kts 311°
2026-04-21 17:51 34.84243 -119.65407 35912 ft 458 kts 312°
2026-04-21 17:52 34.89319 -119.70116 35899 ft 456 kts 312°
2026-04-21 17:52 34.94339 -119.74808 35904 ft 455 kts 311°
2026-04-21 17:53 34.99378 -119.79516 35908 ft 458 kts 312°
2026-04-21 17:53 35.04288 -119.84110 35922 ft 462 kts 311°
2026-04-21 17:54 35.09313 -119.88805 35899 ft 452 kts 311°
2026-04-21 17:54 35.14328 -119.93535 35897 ft 458 kts 311°
2026-04-21 17:55 35.19369 -119.98255 35906 ft 457 kts 312°
2026-04-21 17:55 35.24442 -120.03047 35907 ft 462 kts 312°
2026-04-21 17:56 35.29511 -120.07812 35918 ft 457 kts 312°
2026-04-21 17:56 35.34509 -120.12549 35922 ft 459 kts 311°
2026-04-21 17:57 35.39597 -120.17355 35915 ft 463 kts 311°
2026-04-21 17:57 35.44695 -120.22187 35916 ft 463 kts 311°
2026-04-21 17:58 35.49785 -120.27020 35918 ft 462 kts 311°
2026-04-21 17:58 35.54877 -120.31862 35922 ft 466 kts 311°
2026-04-21 17:59 35.60023 -120.36764 35925 ft 467 kts 311°
2026-04-21 17:59 35.65255 -120.41507 35929 ft 467 kts 314°
2026-04-21 18:00 35.70847 -120.45759 35937 ft 478 kts 318°
2026-04-21 18:00 35.76461 -120.50231 35956 ft 479 kts 315°
2026-04-21 18:01 35.82070 -120.54654 35947 ft 478 kts 317°
2026-04-21 18:01 35.87677 -120.59082 35931 ft 479 kts 316°
2026-04-21 18:02 35.93315 -120.63567 35912 ft 489 kts 317°
2026-04-21 18:02 35.99036 -120.68084 35901 ft 483 kts 317°
2026-04-21 18:03 36.04646 -120.72568 36041 ft 485 kts 317°
2026-04-21 18:03 36.10446 -120.77180 36054 ft 495 kts 318°
2026-04-21 18:04 36.16165 -120.81734 36045 ft 490 kts 317°
2026-04-21 18:04 36.21929 -120.86355 36041 ft 492 kts 318°
2026-04-21 18:05 36.27676 -120.90952 36043 ft 497 kts 318°
2026-04-21 18:05 36.33481 -120.95609 36040 ft 495 kts 318°
2026-04-21 18:06 36.39241 -121.00235 36038 ft 490 kts 318°
2026-04-21 18:06 36.44982 -121.04866 35644 ft 500 kts 318°
2026-04-21 18:07 36.47896 -121.07217 34989 ft 497 kts 318°
2026-04-21 18:07 36.50777 -121.09526 34344 ft 489 kts 318°
2026-04-21 18:07 36.53612 -121.11810 33660 ft 480 kts 317°
2026-04-21 18:07 36.56381 -121.14055 33059 ft 470 kts 317°
2026-04-21 18:08 36.59113 -121.16275 32427 ft 468 kts 318°
2026-04-21 18:08 36.61845 -121.18493 31806 ft 470 kts 318°
2026-04-21 18:08 36.64590 -121.20714 31186 ft 471 kts 318°
2026-04-21 18:08 36.67336 -121.22936 30568 ft 471 kts 318°
2026-04-21 18:09 36.70073 -121.25158 29940 ft 467 kts 319°
2026-04-21 18:09 36.72768 -121.27343 29282 ft 454 kts 319°
2026-04-21 18:09 36.74503 -121.28750 28894 ft 445 kts 319°
2026-04-21 18:09 36.77938 -121.31552 28113 ft 438 kts 319°
2026-04-21 18:10 36.80483 -121.33634 27540 ft 437 kts 320°
2026-04-21 18:10 36.83032 -121.35712 26953 ft 437 kts 320°
2026-04-21 18:10 36.85572 -121.37779 26385 ft 435 kts 320°
2026-04-21 18:10 36.88094 -121.39836 25816 ft 430 kts 320°
2026-04-21 18:11 36.90581 -121.41868 25264 ft 424 kts 321°
2026-04-21 18:11 36.93036 -121.43879 24700 ft 420 kts 321°
2026-04-21 18:11 36.95446 -121.45854 24148 ft 418 kts 322°
2026-04-21 18:11 36.97874 -121.47841 23599 ft 417 kts 322°
2026-04-21 18:12 37.00289 -121.49820 23004 ft 413 kts 322°
2026-04-21 18:12 37.02671 -121.51772 22457 ft 407 kts 322°
2026-04-21 18:12 37.05017 -121.53699 21920 ft 399 kts 322°
2026-04-21 18:12 37.07312 -121.55584 21402 ft 391 kts 322°
2026-04-21 18:13 37.09563 -121.57435 20891 ft 382 kts 322°
2026-04-21 18:13 37.11751 -121.59234 20391 ft 372 kts 322°
2026-04-21 18:13 37.13201 -121.60428 20060 ft 366 kts 322°
2026-04-21 18:13 37.15310 -121.62166 19587 ft 358 kts 322°
2026-04-21 18:14 37.19370 -121.65515 18658 ft 345 kts 322°
2026-04-21 18:14 37.21358 -121.67156 18195 ft 339 kts 322°
2026-04-21 18:14 37.23309 -121.68767 17722 ft 333 kts 322°
2026-04-21 18:15 37.25240 -121.70364 17282 ft 332 kts 322°
2026-04-21 18:15 37.27178 -121.71969 16855 ft 335 kts 322°
2026-04-21 18:15 37.29128 -121.73579 16411 ft 334 kts 322°
2026-04-21 18:15 37.31054 -121.75174 15973 ft 329 kts 322°
2026-04-21 18:16 37.32956 -121.76750 15535 ft 325 kts 322°
2026-04-21 18:16 37.34835 -121.78307 15110 ft 322 kts 322°
2026-04-21 18:16 37.36695 -121.79851 14682 ft 319 kts 322°
2026-04-21 18:16 37.38477 -121.81329 14283 ft 316 kts 322°
2026-04-21 18:17 37.40297 -121.82841 13867 ft 312 kts 322°
2026-04-21 18:17 37.42104 -121.84342 13424 ft 309 kts 322°
2026-04-21 18:17 37.43891 -121.85828 13012 ft 306 kts 322°
2026-04-21 18:17 37.45638 -121.87282 12613 ft 304 kts 322°
2026-04-21 18:18 37.47397 -121.88746 12208 ft 303 kts 322°
2026-04-21 18:18 37.49157 -121.90213 11803 ft 303 kts 322°
2026-04-21 18:18 37.50888 -121.91654 11410 ft 301 kts 322°
2026-04-21 18:18 37.52627 -121.93105 11014 ft 299 kts 322°
2026-04-21 18:19 37.54349 -121.94542 10619 ft 296 kts 322°
2026-04-21 18:19 37.56056 -121.95966 10229 ft 293 kts 322°
2026-04-21 18:19 37.57751 -121.97382 9838 ft 292 kts 322°
2026-04-21 18:19 37.59444 -121.98798 9429 ft 291 kts 322°
2026-04-21 18:20 37.61117 -122.00203 9024 ft 287 kts 322°
2026-04-21 18:20 37.62769 -122.01579 8667 ft 282 kts 322°
2026-04-21 18:20 37.64399 -122.02933 8295 ft 280 kts 322°
2026-04-21 18:20 37.66014 -122.04290 7917 ft 278 kts 322°
2026-04-21 18:21 37.67615 -122.05638 7556 ft 276 kts 322°
2026-04-21 18:21 37.69202 -122.06968 7198 ft 272 kts 322°
2026-04-21 18:21 37.70762 -122.08274 6848 ft 267 kts 322°
2026-04-21 18:21 37.72296 -122.09562 6509 ft 262 kts 322°
2026-04-21 18:22 37.73810 -122.10833 6209 ft 251 kts 322°
2026-04-21 18:22 37.75203 -122.11999 6040 ft 235 kts 322°
2026-04-21 18:22 37.76520 -122.13103 5891 ft 222 kts 322°
2026-04-21 18:22 37.77785 -122.14172 5738 ft 216 kts 321°
2026-04-21 18:23 37.79043 -122.15235 5493 ft 219 kts 321°
2026-04-21 18:23 37.80181 -122.16477 5185 ft 213 kts 303°
2026-04-21 18:23 37.80933 -122.18050 4923 ft 207 kts 288°
2026-04-21 18:23 37.81299 -122.19782 4644 ft 202 kts 272°
2026-04-21 18:24 37.81272 -122.21533 4365 ft 196 kts 258°
2026-04-21 18:24 37.80884 -122.23157 4108 ft 190 kts 243°
2026-04-21 18:24 37.80189 -122.24564 3875 ft 190 kts 230°
2026-04-21 18:24 37.79216 -122.25706 3625 ft 192 kts 216°
2026-04-21 18:25 37.78044 -122.26531 3365 ft 193 kts 209°
2026-04-21 18:25 37.76864 -122.27311 3098 ft 191 kts 209°
2026-04-21 18:25 37.75694 -122.28099 2852 ft 190 kts 209°
2026-04-21 18:25 37.74526 -122.28876 2603 ft 188 kts 208°
2026-04-21 18:26 37.73447 -122.29591 2360 ft 161 kts 209°
2026-04-21 18:26 37.72534 -122.30198 2129 ft 136 kts 207°
2026-04-21 18:26 37.71757 -122.30715 2001 ft 110 kts 209°
2026-04-21 18:26 37.71091 -122.31161 1796 ft 106 kts 207°
2026-04-21 18:27 37.70388 -122.31627 1850 ft 121 kts 208°
2026-04-21 18:27 37.69654 -122.32115 1830 ft 118 kts 209°
2026-04-21 18:27 37.68958 -122.32578 1783 ft 115 kts 208°
2026-04-21 18:27 37.68190 -122.33080 1780 ft 125 kts 207°
2026-04-21 18:28 37.67439 -122.33504 1542 ft 117 kts 205°
2026-04-21 18:28 37.66674 -122.33965 1187 ft 125 kts 208°
2026-04-21 18:28 37.65893 -122.34511 861 ft 131 kts 210°
2026-04-21 18:28 37.65151 -122.35142 589 ft 126 kts 209°
2026-04-21 18:29 37.64364 -122.35622 422 ft 129 kts 206°
2026-04-21 18:29 37.63569 -122.36166 258 ft 133 kts 210°
2026-04-21 18:29 37.62765 -122.36699 62 ft 126 kts 206°
2026-04-21 18:29 37.62100 -122.37134 9 ft 65 kts 208°
2026-04-21 18:30 37.78680 -122.26124 3494 ft 192 kts 210°
2026-04-21 18:30 37.62497 -122.36874 24 ft 116 kts 206°
2026-04-21 18:30 37.62023 -122.37185 9 ft 13 kts 207°